フェイ彗星

4P/Faye (2006)

English version
Home page
Updated on June 9, 2013

---------------------------------------------------------------------

・ プロフィール

・ 写真集

・ 軌道要素

Epoch 2006 Nov. 1.0 TT = JDT 2454040.5
T 2006 Nov. 15.4542 TT                                  MPCN
q   1.667350             (2000.0)            P               Q
n   0.1305749      Peri.  205.0158      +0.7171343      -0.6949995
a   3.847951       Node   199.3081      +0.6629233      +0.7032241
e   0.566691       Incl.    9.0316      +0.2150608      +0.1498382
P   7.55
From 459 observations 1984-2000, mean residual 1".0.  Nongravitational
     parameters A1 = +0.64, A2 = -0.0145.

・ 星図

・ 光度変化

        m1 =   4.7 + 5 logΔ + 25   log r  [   ,180]  (              〜2007年 5月14日)
        m1 =  10.3 + 5 logΔ + 10.0 log r  [180,   ]  (2007年 5月14日〜              )

---------------------------------------------------------------------

軌道要素はMPCのEphemerides and Orbital Elementsに掲載されたものです。
星図は StellaNavigator Ver.2.0 for Windows (アストロアーツ 編著 / アスキー出版局刊) で作成したものです。
光度グラフはComet for Windowsで作成したものです。

---------------------------------------------------------------------

Copyright(C) Seiichi Yoshida (comet@aerith.net). All rights reserved.